Regional Weather Roundup
Issued by NWS

Home | Current Version | Previous Version | Graphics & Text | Print | Product List | Glossary On
Versions: 1 2 3 4 5 6 7 8 9 10 11 12 13 14 15 16 17 18 19 20 21 22 23 24 25 26 27 28 29 30 31 32 33 34 35 36 37 38 39 40 41 42 43 44 45 46 47 48 49 50
330
ASUS43 KLMK 210510
RWRKY
KENTUCKY REGIONAL WEATHER ROUNDUP
NATIONAL WEATHER SERVICE LOUISVILLE KY
100 AM EDT SAT OCT 21 2017

NOTE "FAIR" INDICATES FEW OR NO CLOUDS BELOW 12,000 FEET
WITH NO SIGNIFICANT WEATHER AND/OR OBSTRUCTIONS TO VISIBILITY.

KYZ001>023-026-027-061>063-070>075-210600-
WESTERN AND SOUTH CENTRAL KENTUCKY

CITY           SKY/WX    TMP DP  RH WIND       PRES   REMARKS
PADUCAH        MOCLDY    64  47  53 S3        30.11S
HENDERSON      PTCLDY    57  49  74 CALM      30.14F
OWENSBORO      PTCLDY    56  50  80 CALM      30.15F
HOPKINSVILLE   CLEAR     57  49  75 SE6       30.15F
BOWLING GREEN  CLEAR     53  52  96 CALM      30.17S
GLASGOW        PTCLDY    50  50  99 CALM      30.17F
$$

KYZ024-025-028>034-038-045-046-053-210600-
NORTH CENTRAL KENTUCKY

CITY           SKY/WX    TMP DP  RH WIND       PRES   REMARKS
LOUISVILLE/SDF PTCLDY    62  52  69 SE5       30.17S
LOUISVILLE/LOU CLOUDY    55  53  93 CALM      30.18S
FORT KNOX      PTCLDY    55  51  89 E3        30.16F
$$

KYZ035>037-039>044-047>052-055>060-089>105-210600-
NORTHEAST KENTUCKY

CITY           SKY/WX    TMP DP  RH WIND       PRES   REMARKS
LEXINGTON      CLOUDY    58  50  75 SE7       30.20F
COVINGTON      MOCLDY    56  54  93 CALM      30.20R
FRANKFORT      CLOUDY    52  47  83 CALM      30.19S
$$

KYZ054-064>069-076>088-106>120-210600-
SOUTHEAST KENTUCKY

CITY           SKY/WX    TMP DP  RH WIND       PRES   REMARKS
JACKSON        CLOUDY    60  51  72 E3        30.23S
LONDON         CLOUDY    50  48  93 CALM      30.22F
SOMERSET       CLOUDY    50  50 100 CALM      30.22F
MIDDLESBORO    CLEAR     47  47 100 CALM      30.26S
MONTICELLO     CLEAR     47  46  97 W7        30.22F
$$





USA.gov is the U.S. government's official web portal to all federal, state and local government web resources and services.